[[{"header":{"parameterUnit":"m.s-1","parameterCategory":1,"la1":30.2991,"la2":30.254,"lo1":-89.0895,"lo2":-89.0444,"dx":0.0017,"dy":0.0017,"nx":28,"ny":28,"refTime":"2022-12-15T09:00:00:Z","depth":0,"parameterNumber":2,"parameterNumberName":"U-component_of_WINDS"},"data":[0,0,0,0,0,0,0,0,0,0,0,0,0,0,0,0,0,0,0,0,0,0,0,0,0,0,0,0,0,0,0,0,0,0,0,0,0,0,0,0,0,0,0,0,0,0,0,0,0,0,0,0,0,0,0,0,0,0,2.1389,2.1389,0,2.1446,2.1447,2.1447,2.1409,2.1408,2.1406,2.1404,2.1462,2.1465,2.1468,0,0,0,0,0,0,0,0,0,0,0,0,0,2.1246,2.1248,2.1389,2.1389,2.139,2.1446,2.1447,2.1448,2.141,2.1408,2.1405,2.1403,2.1461,2.1465,2.1468,0,0,0,0,0,0,0,0,0,0,0,0,0,2.1306,2.1249,2.1389,2.1378,2.1378,2.1446,2.1447,2.1448,2.141,2.1407,2.1405,2.1402,2.146,2.1464,2.1469,2.1551,0,0,2.1483,2.1486,0,0,0,0,0,0,0,0,2.1302,2.1311,2.1379,2.1379,2.1378,2.1418,2.1417,2.1482,2.1411,2.1398,2.1404,2.1401,2.1449,2.1455,2.1471,2.1553,2.1556,2.1484,2.1487,2.1489,2.149,0,0,0,0,0,0,0,2.1298,2.1308,2.1411,2.138,2.138,2.137,2.1376,2.143,2.1437,2.1399,2.1396,2.1403,2.1449,2.1467,2.1472,2.1557,2.1484,2.1488,2.1491,2.1493,2.1709,2.1712,0,0,0,0,0,0,2.1295,2.1305,2.1409,2.1413,2.1333,2.1375,2.1381,2.1408,2.1437,2.1439,2.1406,2.1401,2.146,2.1467,2.1474,2.1572,2.1489,2.1493,2.1496,2.1706,2.1709,2.1713,0,0,0,0,0,0,2.1292,2.1305,2.1407,2.1359,2.1371,2.138,2.141,2.141,2.1428,2.1442,2.1443,2.1423,2.1458,2.1468,2.1532,2.1573,2.1495,2.15,2.1703,2.1707,2.1711,2.1767,0,0,0,0,0,0,2.1288,2.1304,2.1335,2.1359,2.1374,2.1464,2.1413,2.1413,2.1437,2.1432,2.1458,2.146,2.1457,2.1525,2.1537,2.1578,2.1503,2.1699,2.1705,2.171,2.1762,2.1773,2.1783,0,0,0,0,0,2.1283,2.1348,2.1337,2.135,2.1413,2.1467,2.1475,2.147,2.144,2.1472,2.1481,2.1459,2.1567,2.1532,2.1545,2.1588,2.1696,2.1703,2.1709,2.1757,2.1771,2.1782,0,0,0,0,0,0,2.1328,2.1351,2.1339,2.1414,2.1439,2.146,2.15,2.1485,2.1518,2.1512,2.1504,2.1511,2.1578,2.159,2.1551,2.1669,2.1627,2.1636,2.1659,2.1672,2.1682,2.1678,2.1507,0,0,0,0,0,2.1347,2.1389,2.1407,2.1471,2.1485,2.149,2.1514,2.1508,2.1533,2.1543,2.1557,2.1582,2.1621,2.1647,2.1684,2.1764,2.1769,2.18,2.181,2.1819,2.1827,2.187,2.1884,2.1734,2.1734,2.1734,0,0,2.1386,2.1404,2.1431,2.1481,2.1499,2.1543,2.1499,2.1547,2.1579,2.155,2.1612,2.1623,2.1651,2.1723,2.1755,2.1735,2.1869,2.1827,2.1834,2.1837,2.1878,2.1892,2.1904,2.1738,2.1738,2.1737,0,0,2.1479,2.1497,2.1552,2.1572,2.1601,2.1604,2.1618,2.1642,2.1649,2.1711,2.169,2.1728,2.1796,2.1817,2.1836,2.1938,2.192,2.1951,2.2005,2.2047,2.2058,2.2069,2.2105,2.2118,2.1959,2.1959,2.1959,0,2.1523,2.1588,2.1583,2.1633,2.1655,2.1632,2.1688,2.1708,2.1747,2.1763,2.174,2.1825,2.1842,2.1919,2.1944,2.196,2.1975,2.1947,2.2057,2.2068,2.2077,2.2111,2.2125,2.1962,2.1962,2.1962,2.1961,0,2.1641,2.1687,2.1729,2.1768,2.1796,2.1848,2.1851,2.1879,2.1872,2.1878,2.1941,2.1961,2.2002,2.202,2.2012,2.2096,2.2082,2.2058,2.2015,2.2095,2.2127,2.214,2.1967,2.1966,2.1965,2.1964,0,0,2.1763,2.18,2.1815,2.1833,2.1863,2.1898,2.195,2.1991,2.2015,2.2044,2.2087,2.2146,2.2124,2.2146,2.2141,2.2178,2.2257,2.2149,2.215,2.2168,2.235,2.2367,2.2383,2.2246,2.2248,2.225,2.2348,0,2.1858,2.1949,2.1946,2.203,2.2072,2.2051,2.2096,2.212,2.2127,2.2164,2.2172,2.2214,2.2182,2.2195,2.2231,2.224,2.2294,2.2233,2.2285,2.2287,2.2278,2.24,2.2418,2.2509,2.236,2.2362,2.2364,0,2.198,2.2013,2.2102,2.2127,2.2144,2.2185,2.2222,2.2258,2.2284,2.2287,2.2312,2.2301,2.2354,2.2311,2.2383,2.2342,2.2363,2.2371,2.2375,2.2379,2.233,2.2406,2.2538,2.2551,2.2384,2.2382,2.2381,0,2.2059,2.2126,2.2188,2.2204,2.2235,2.2264,2.2278,2.2302,2.2327,2.2359,2.2375,2.2413,2.2434,2.2463,2.2463,2.2432,2.2536,2.2493,2.2539,2.254,2.2561,2.256,2.2698,2.2577,2.2577,2.2576,2.2576,0,2.2165,2.222,2.2224,2.2262,2.2324,2.232,2.238,2.2392,2.2413,2.2453,2.2437,2.2475,2.2473,2.2511,2.2511,2.257,2.258,2.2583,2.2583,2.2584,2.2584,2.2598,2.2591,2.258,2.2579,2.2578,2.2578,0,2.2264,2.2269,2.2335,2.2359,2.2366,2.241,2.2431,2.2467,2.2473,2.2523,2.2535,2.2545,2.2589,2.2592,2.2642,2.2643,2.2715,2.2708,2.2706,2.2704,2.2751,2.2746,2.2901,2.2921,2.2788,2.2789,2.279,0,2.233,2.2372,2.2401,2.2427,2.2443,2.2484,2.2509,2.2508,2.2534,2.2568,2.26,2.2643,2.2677,2.2748,2.276,2.2798,2.2791,2.2843,2.2797,2.2797,2.2791,2.2789,2.2793,2.2852,2.2853,2.2854,2.2855,0,2.2448,2.2449,2.2486,2.2524,2.2555,2.2585,2.2613,2.2635,2.2636,2.2667,2.2712,2.2739,2.2791,2.2833,2.2871,2.2886,2.2871,2.287,2.2883,2.2884,2.2882,2.2883,2.273,2.2866,2.2865,2.2864,2.2864,2.2863,2.2532,2.2569,2.2595,2.2637,2.2658,2.2684,2.2719,2.273,2.2768,2.2811,2.2807,2.2857,2.2883,2.2933,2.295,2.2989,2.2971,2.299,2.2994,2.2999,2.3003,2.2876,2.2996,2.2996,2.2995,2.2995,2.2995,0,2.2649,2.2664,2.2703,2.2743,2.2776,2.276,2.2791,2.2819,2.2863,2.2889,2.2923,2.2975,2.3016,2.3031,2.3071,2.3099,2.3094,2.311,2.3107,2.3111,2.3017,2.3002,2.3114,2.3114,2.3114,2.3114,2.3114,2.3114,2.2713,2.2774,2.2777,2.2848,2.2864,2.2913,2.2931,2.2956,2.2976,2.3035,2.3069,2.3079,2.3101,2.3142,2.3179,2.3183,2.3198,2.3217,2.3217,2.3129,2.3117,2.3106,2.3091,2.322,2.3221,2.3308,2.3308,2.3309]},{"header":{"parameterUnit":"m.s-1","parameterCategory":1,"la1":30.2991,"la2":30.254,"lo1":-89.0895,"lo2":-89.0444,"dx":0.0017,"dy":0.0017,"nx":28,"ny":28,"refTime":"2022-12-15T09:00:00:Z","depth":0,"parameterNumber":3,"parameterNumberName":"V-component_of_WINDS"},"data":[0,0,0,0,0,0,0,0,0,0,0,0,0,0,0,0,0,0,0,0,0,0,0,0,0,0,0,0,0,0,0,0,0,0,0,0,0,0,0,0,0,0,0,0,0,0,0,0,0,0,0,0,0,0,0,0,0,0,-2.9499,-2.95,0,-2.9604,-2.9605,-2.9606,-2.9589,-2.9587,-2.9585,-2.9583,-2.969,-2.9694,-2.9699,0,0,0,0,0,0,0,0,0,0,0,0,0,-2.9281,-2.9285,-2.9499,-2.95,-2.9501,-2.9604,-2.9605,-2.9607,-2.9589,-2.9587,-2.9585,-2.9582,-2.9688,-2.9694,-2.9699,0,0,0,0,0,0,0,0,0,0,0,0,0,-2.938,-2.9286,-2.9498,-2.9505,-2.9506,-2.9603,-2.9605,-2.9607,-2.9589,-2.9587,-2.9584,-2.9581,-2.9687,-2.9693,-2.97,-2.9797,0,0,-2.9721,-2.9724,0,0,0,0,0,0,0,0,-2.9374,-2.9388,-2.9503,-2.9505,-2.9507,-2.958,-2.9567,-2.9671,-2.959,-2.9558,-2.9583,-2.958,-2.9656,-2.9665,-2.969,-2.9802,-2.9806,-2.9721,-2.9725,-2.9728,-2.973,0,0,0,0,0,0,0,-2.9367,-2.9383,-2.954,-2.9504,-2.9507,-2.9502,-2.9513,-2.9587,-2.9621,-2.956,-2.9559,-2.9572,-2.9656,-2.9684,-2.9693,-2.9808,-2.9721,-2.9727,-2.9731,-2.9734,-3.0003,-3.0006,0,0,0,0,0,0,-2.9359,-2.9377,-2.9537,-2.9543,-2.9432,-2.9508,-2.952,-2.9559,-2.962,-2.9627,-2.9574,-2.9571,-2.9674,-2.9685,-2.9697,-2.9813,-2.9728,-2.9735,-2.9739,-3.0,-3.0004,-3.0007,0,0,0,0,0,0,-2.9354,-2.9373,-2.9533,-2.946,-2.948,-2.9515,-2.9559,-2.9563,-2.9591,-2.9631,-2.9636,-2.9597,-2.9672,-2.9687,-2.9772,-2.9817,-2.9738,-2.9744,-2.9996,-3.0001,-3.0005,-3.0048,0,0,0,0,0,0,-2.9348,-2.9371,-2.9409,-2.9461,-2.9484,-2.9607,-2.9562,-2.9567,-2.9603,-2.9599,-2.9653,-2.9659,-2.9671,-2.9762,-2.9779,-2.9825,-2.9749,-2.9992,-2.9998,-3.0004,-3.0043,-3.0053,-3.0062,0,0,0,0,0,-2.934,-2.9417,-2.9411,-2.943,-2.9532,-2.9609,-2.9622,-2.9635,-2.9606,-2.9644,-2.9669,-2.9658,-2.9809,-2.9771,-2.9789,-2.9838,-2.999,-2.9997,-3.0003,-3.0038,-3.0051,-3.0062,0,0,0,0,0,0,-2.9369,-2.9424,-2.9418,-2.9514,-2.9557,-2.9606,-2.9654,-2.9648,-2.97,-2.9695,-2.9707,-2.972,-2.9806,-2.983,-2.9787,-2.9935,-2.9895,-2.9906,-2.9915,-2.9928,-2.9938,-2.993,-2.9755,0,0,0,0,0,-2.9386,-2.9445,-2.949,-2.957,-2.9592,-2.962,-2.9654,-2.966,-2.9705,-2.9723,-2.9754,-2.9798,-2.9856,-2.9893,-2.9948,-3.0046,-3.0057,-3.0089,-3.0099,-3.0107,-3.0116,-3.0168,-3.0183,-3.0029,-3.0029,-3.0029,0,0,-2.9423,-2.946,-2.9497,-2.9577,-2.9611,-2.9671,-2.9635,-2.97,-2.9745,-2.9733,-2.9815,-2.9839,-2.9889,-2.9981,-3.0023,-3.0004,-3.0161,-3.0116,-3.0122,-3.0127,-3.0177,-3.0192,-3.0204,-3.0034,-3.0033,-3.0033,0,0,-2.9521,-2.9555,-2.9625,-2.966,-2.9713,-2.973,-2.9747,-2.9797,-2.9813,-2.9896,-2.9888,-2.9941,-3.004,-3.0075,-3.0106,-3.0217,-3.0207,-3.0234,-3.0286,-3.0337,-3.0349,-3.036,-3.0399,-3.0412,-3.0243,-3.0243,-3.0243,0,-2.956,-2.965,-2.9662,-2.9728,-2.9763,-2.9755,-2.9826,-2.9859,-2.9927,-2.9951,-2.9929,-3.0053,-3.0086,-3.0185,-3.0212,-3.0238,-3.0257,-3.0228,-3.0347,-3.0358,-3.0368,-3.0405,-3.0419,-3.0246,-3.0246,-3.0246,-3.0245,0,-2.9695,-2.9758,-2.9809,-2.9874,-2.9915,-2.9983,-3.0005,-3.0045,-3.0047,-3.0066,-3.015,-3.0189,-3.0252,-3.0276,-3.0279,-3.0376,-3.0362,-3.0344,-3.0304,-3.0385,-3.042,-3.0434,-3.025,-3.0249,-3.0248,-3.0248,0,0,-2.9814,-2.9885,-2.9903,-2.9932,-2.9989,-3.0038,-3.0105,-3.0167,-3.02,-3.0247,-3.0303,-3.0387,-3.037,-3.0405,-3.0411,-3.0456,-3.054,-3.0432,-3.0433,-3.045,-3.0649,-3.0662,-3.0678,-3.0535,-3.0538,-3.054,-3.0644,0,-2.9916,-3.0036,-3.0048,-3.0155,-3.0213,-3.0205,-3.0264,-3.0305,-3.0325,-3.0376,-3.0398,-3.0457,-3.0431,-3.0452,-3.0496,-3.0521,-3.058,-3.0514,-3.0587,-3.0589,-3.0574,-3.0697,-3.0711,-3.0808,-3.0658,-3.0661,-3.0662,0,-3.0052,-3.0103,-3.0215,-3.0263,-3.0288,-3.034,-3.0397,-3.0447,-3.0492,-3.0504,-3.0543,-3.0543,-3.0612,-3.0571,-3.0665,-3.0619,-3.065,-3.0666,-3.0671,-3.0677,-3.063,-3.0706,-3.0839,-3.0854,-3.0684,-3.0682,-3.0681,0,-3.0126,-3.0223,-3.0302,-3.0327,-3.0386,-3.0423,-3.0449,-3.0492,-3.0528,-3.0577,-3.06,-3.0657,-3.0688,-3.0732,-3.0748,-3.0716,-3.0841,-3.0801,-3.0852,-3.0852,-3.0878,-3.0876,-3.1018,-3.0899,-3.0899,-3.0898,-3.0898,0,-3.0239,-3.0308,-3.0336,-3.0385,-3.0462,-3.0475,-3.055,-3.0574,-3.0613,-3.0665,-3.0663,-3.0712,-3.073,-3.0782,-3.0795,-3.0871,-3.0885,-3.0896,-3.0898,-3.0896,-3.0894,-3.0915,-3.0909,-3.0902,-3.0901,-3.0901,-3.09,0,-3.0335,-3.0357,-3.0443,-3.0491,-3.0505,-3.0559,-3.06,-3.0646,-3.0666,-3.0733,-3.0749,-3.0779,-3.084,-3.086,-3.0935,-3.0943,-3.1031,-3.1028,-3.1016,-3.1016,-3.1066,-3.106,-3.1225,-3.1247,-3.1114,-3.1116,-3.1117,0,-3.0406,-3.0459,-3.0512,-3.0547,-3.0575,-3.0632,-3.0668,-3.0683,-3.0721,-3.0777,-3.0817,-3.0878,-3.0927,-3.1025,-3.1054,-3.111,-3.1108,-3.1162,-3.1116,-3.1112,-3.1108,-3.1104,-3.1109,-3.117,-3.1171,-3.1172,-3.1173,0,-3.0528,-3.0536,-3.0589,-3.0646,-3.069,-3.0735,-3.0779,-3.0807,-3.0829,-3.0871,-3.0934,-3.0973,-3.1048,-3.1108,-3.1166,-3.1192,-3.1186,-3.1187,-3.1202,-3.12,-3.1191,-3.1196,-3.1038,-3.1184,-3.1183,-3.1182,-3.1181,-3.1181,-3.0613,-3.066,-3.0704,-3.0763,-3.0797,-3.0838,-3.0884,-3.0909,-3.0962,-3.1025,-3.103,-3.1098,-3.1141,-3.1218,-3.1247,-3.13,-3.1284,-3.1306,-3.1311,-3.1316,-3.1319,-3.1183,-3.131,-3.131,-3.131,-3.1309,-3.1309,0,-3.0735,-3.0763,-3.0817,-3.0878,-3.0925,-3.0915,-3.0963,-3.1002,-3.1062,-3.1103,-3.1152,-3.1223,-3.1282,-3.1314,-3.1372,-3.1408,-3.1407,-3.1423,-3.142,-3.1426,-3.133,-3.1311,-3.1423,-3.1423,-3.1423,-3.1423,-3.1423,-3.1423,-3.0804,-3.0881,-3.0894,-3.0989,-3.1016,-3.1083,-3.1111,-3.1148,-3.1181,-3.1261,-3.1309,-3.133,-3.1368,-3.1429,-3.1481,-3.1489,-3.1511,-3.1528,-3.1534,-3.1444,-3.1433,-3.1422,-3.1404,-3.1533,-3.1533,-3.1626,-3.1626,-3.1627]}]]